Fulton, NY

3:29 PM EST on December 06, 2016 (GMT -0500)
Oswego County

Weather History for KFZY - June, 2014

Change the Weather History Date:

Wednesday, June 18, 2014

  Actual Average (KSYR) Record (KSYR)
Temperature  
Mean Temperature 66 °F 68 °F  
Max Temperature 72 °F 78 °F 96 °F (1957)
Min Temperature 61 °F 57 °F 42 °F (1950)
Degree Days  
Heating Degree Days 0 1  
Month to date heating degree days 49  
Since 1 June heating degree days 49  
Since 1 July heating degree days 6639  
Cooling Degree Days 1 4  
Month to date cooling degree days 52  
Year to date cooling degree days 82  
Since 1 June cooling degree days 52  
Growing Degree Days 16 (Base 50)    
Moisture  
Dew Point 60 °F    
Average Humidity 84    
Maximum Humidity 90    
Minimum Humidity 70    
Precipitation  
Precipitation 0.00 in 0.11 in 1.19 in (1905)
Month to date precipitation 1.97  
Year to date precipitation 15.90  
Snow  
Snow 0.00 in 0.00 in 0.00 in (2002)
Month to date snowfall 0.0  
Since 1 June snowfall 0.0  
Since 1 July snowfall 123.8  
Snow Depth -    
Sea Level Pressure  
Sea Level Pressure 29.94 in    
Wind  
Wind Speed 10 mph (WNW)    
Max Wind Speed 18 mph    
Max Gust Speed 25 mph    
Visibility 10 miles    
Events      
T = Trace of Precipitation, MM = Missing Value Source: NWS Daily Summary

Daily Weather History Graph

Daily Weather History Graph

Search for Another Location

Airport or City:

Trip Planner

Search our weather history database for the weather conditions in past years. The results will help you decide how hot, cold, wet, or windy it might be!

Date:

Astronomy

Jun. 18, 2014 Rise Set
Actual Time 5:24 AM EDT 8:48 PM EDT
Civil Twilight 4:48 AM EDT 9:24 PM EDT
Nautical Twilight 4:02 AM EDT 10:11 PM EDT
Astronomical Twilight 3:04 AM EDT 11:09 PM EDT
Moon 12:07 AM EDT (6/18) 11:55 AM EDT (6/18)
Length of Visible Light 16h 35m
Length of Day
15h 24m
Waning Gibbous, 63% of the Moon is Illuminated
Jun 18
Waning Gibbous
Jun 19
Last Quarter
Jun 27
New
Jul 5
First Quarter
Jul 12
Full

Hourly Weather History & Observations

Time (EDT) Temp. Dew Point Humidity Pressure Visibility Wind Dir Wind Speed Gust Speed Precip Events Conditions
12:46 AM 70.0 °F 66.9 °F 90% 29.79 in 10.0 mi WSW 10.4 mph - N/A   Overcast
12:54 AM 71.1 °F 66.9 °F 87% 29.79 in 10.0 mi WSW 8.1 mph - N/A   Overcast
1:41 AM 70.0 °F 66.0 °F 87% 29.82 in 10.0 mi West 18.4 mph 23.0 mph N/A   Overcast
1:54 AM 69.1 °F 64.0 °F 84% 29.82 in 10.0 mi WNW 12.7 mph 20.7 mph N/A   Overcast
2:09 AM 68.0 °F 63.0 °F 84% 29.83 in 10.0 mi West 15.0 mph - N/A   Overcast
2:22 AM 66.0 °F 62.1 °F 87% 29.82 in 10.0 mi West 15.0 mph 25.3 mph N/A   Overcast
2:54 AM 64.9 °F 60.1 °F 84% 29.83 in 10.0 mi West 12.7 mph - N/A   Mostly Cloudy
3:08 AM 64.0 °F 60.1 °F 87% 29.84 in 10.0 mi West 11.5 mph - N/A   Overcast
3:54 AM 63.0 °F 59.0 °F 87% 29.86 in 10.0 mi WNW 12.7 mph - N/A   Overcast
4:54 AM 63.0 °F 59.0 °F 87% 29.88 in 10.0 mi West 15.0 mph 23.0 mph N/A   Overcast
5:16 AM 63.0 °F 59.0 °F 87% 29.89 in 10.0 mi West 16.1 mph 24.2 mph N/A   Overcast
5:25 AM 63.0 °F 59.0 °F 87% 29.89 in 10.0 mi West 13.8 mph - N/A   Overcast
5:54 AM 63.0 °F 59.0 °F 87% 29.90 in 10.0 mi West 15.0 mph - N/A   Overcast
6:54 AM 63.0 °F 59.0 °F 87% 29.90 in 10.0 mi WNW 9.2 mph - N/A   Overcast
7:43 AM 62.1 °F 57.9 °F 86% 29.93 in 10.0 mi West 11.5 mph - N/A   Overcast
7:54 AM 61.0 °F 57.9 °F 90% 29.93 in 10.0 mi WNW 10.4 mph - N/A   Overcast
8:54 AM 61.0 °F 57.9 °F 90% 29.97 in 10.0 mi West 10.4 mph - N/A   Overcast
9:38 AM 61.0 °F 57.0 °F 87% 30.00 in 10.0 mi West 6.9 mph - N/A   Overcast
9:54 AM 61.0 °F 57.0 °F 87% 30.00 in 10.0 mi WNW 9.2 mph - N/A   Overcast
10:17 AM 61.0 °F 57.0 °F 87% 30.00 in 10.0 mi NW 5.8 mph - N/A   Overcast
10:49 AM 62.6 °F 59.0 °F 88% 30.01 in 10.0 mi West 5.8 mph - N/A   Overcast
10:54 AM 64.0 °F 59.0 °F 84% 30.00 in 10.0 mi WNW 4.6 mph - N/A   Overcast
11:54 AM 64.0 °F 59.0 °F 84% 30.02 in 10.0 mi West 8.1 mph - N/A   Overcast
12:37 PM 64.9 °F 59.0 °F 81% 30.04 in 10.0 mi West 11.5 mph - N/A   Overcast
12:54 PM 66.9 °F 61.0 °F 81% 30.03 in 10.0 mi WNW 5.8 mph - N/A   Overcast
1:54 PM 71.1 °F 61.0 °F 70% 30.00 in 10.0 mi NW 6.9 mph - N/A   Mostly Cloudy
2:54 PM 70.0 °F 60.1 °F 71% 30.01 in 10.0 mi NW 11.5 mph - N/A   Mostly Cloudy
3:54 PM 70.0 °F 60.1 °F 71% 30.00 in 10.0 mi West 9.2 mph - N/A   Clear
4:54 PM 71.1 °F 61.0 °F 70% 29.99 in 10.0 mi West 5.8 mph - N/A   Clear
5:54 PM 69.1 °F 61.0 °F 75% 29.99 in 10.0 mi West 4.6 mph - N/A   Overcast
6:54 PM 68.0 °F 60.1 °F 76% 30.00 in 10.0 mi West 8.1 mph - N/A   Scattered Clouds
7:54 PM 66.0 °F 60.1 °F 81% 30.01 in 10.0 mi Calm Calm - N/A   Overcast
8:54 PM 64.9 °F 60.1 °F 84% 30.01 in 10.0 mi Calm Calm - N/A   Scattered Clouds
9:54 PM 64.0 °F 60.1 °F 87% 30.01 in 10.0 mi Calm Calm - N/A   Overcast
10:54 PM 63.0 °F 60.1 °F 90% 30.03 in 9.0 mi NE 3.5 mph - N/A   Partly Cloudy
11:54 PM 62.1 °F 59.0 °F 90% 30.02 in 8.0 mi Calm Calm - N/A   Clear